Location: Chakepay
(13.3931°S, 72.1925°W)
Time: 05:16:52
(UTC+00:00)

COSMOS 2441 - Pass Details

Date: 15 November 2019
Orbit: 707 x 732 km, 98.0° (Epoch: 09 December)

Event Time Altitude Azimuth Distance (km) Brightness Sun altitude
Exits shadow 08:42:20 38° 339° (NNW) 1,082 4.9 -20.9°
Maximum altitude 08:43:56 57° 281° (W) 834 4.3 -20.5°
Drops below altitude 10° 08:48:39 10° 202° (SSW) 2,189 6.9 -19.5°
Sets 08:50:58 0° 198° (SSW) 3,115 7.8 -19.0°
